• Processing (Info)

  • MPEC 2014-M07 : 2014 LA27

    The following Minor Planet Electronic Circular may be linked-to from your own Web pages, but must not otherwise be redistributed electronically.

    A form allowing access to any MPEC is at the bottom of this page.


    Read MPEC 2014-M06 Read MPEC 2014-M08


    M.P.E.C. 2014-M07                                Issued 2014 June 17, 14:05 UT
    
         The Minor Planet Electronic Circulars contain information on unusual
             minor planets and routine data on comets.  They are published
       on behalf of Commission 20 of the International Astronomical Union by the
              Minor Planet Center, Smithsonian Astrophysical Observatory,
                              Cambridge, MA 02138, U.S.A.
    
                 Prepared using the Tamkin Foundation Computer Network
    
                                  MPC@CFA.HARVARD.EDU
                URL https://www.minorplanetcenter.net/    ISSN 1523-6714
    
                                       2014 LA27
    
    Observations:
         K14L27A* C2014 06 08.28403 10 58 39.116+35 02 06.22         20.2 iLEM007F51
         K14L27A  C2014 06 08.29655 10 58 40.075+35 01 23.52         20.4 iLEM007F51
         K14L27A  C2014 06 08.30908 10 58 41.056+35 00 40.61         20.3 iLEM007F51
         K14L27A KC2014 06 09.17242 10 59 50.96 +34 11 37.4          19.7 RoEM007291
         K14L27A KC2014 06 09.17467 10 59 51.15 +34 11 29.7                oEM007291
         K14L27A KC2014 06 09.17692 10 59 51.32 +34 11 22.1                oEM007291
         K14L27A KC2014 06 16.12522 11 09 21.42 +27 25 38.6          19.9 RqEM007H36
         K14L27A KC2014 06 16.13239 11 09 22.03 +27 25 13.4          19.4 RqEM007H36
         K14L27A KC2014 06 16.14333 11 09 22.92 +27 24 33.3          19.7 RqEM007H36
         K14L27A KC2014 06 17.11772911 10 43.73 +26 26 12.8          19.7 VrEM007H21
         K14L27A KC2014 06 17.11951611 10 43.86 +26 26 07.2                rEM007H21
         K14L27A KC2014 06 17.12457211 10 44.32 +26 25 47.4                rEM007H21
    
    Observer details:
    291 LPL/Spacewatch II.  Observer R. S. McMillan.  1.8-m f/2.7 reflector + CCD.
    F51 Pan-STARRS 1, Haleakala.  Observers N. Primak, A. Schultz, T. Goggia,
        M. Willman.  1.8-m Ritchey-Chretien + CCD.
    H21 Astronomical Research Observatory, Westfield.  Observer R. Holmes.
        Measurers S. Foglia, L. Buzzi, T. Linder, T. Lister, T. Vorobjov.  0.61-m
        f/4.0 astrograph + CCD.
    H36 Sandlot Observatory, Scranton.  Observer G. Hug.  0.56-m reflector + CCD.
    
    Orbital elements:
    2014 LA27                                                Earth MOID = 0.0597 AU
    Epoch 2014 May 23.0 TT = JDT 2456800.5                  MPC
    M 335.39103              (2000.0)            P               Q
    n   0.36170660     Peri.  200.81452     -0.28588654     +0.78780327
    a   1.9508854      Node    56.82696     -0.76099496     +0.15934833
    e   0.4617604      Incl.   40.67640     -0.58237063     -0.59495725
    P   2.72           H   18.2           G   0.15           U   7
    Residuals in seconds of arc
    140608 F51  0.1+  0.0     140609 291  0.0   0.1-    140616 H36  0.4+  0.1-
    140608 F51  0.0   0.1+    140609 291  0.1-  0.0     140617 H21  0.2-  0.2-
    140608 F51  0.1+  0.0     140616 H36  0.2-  0.1+    140617 H21  0.4-  0.7+
    140609 291  0.2-  0.2-    140616 H36  0.2+  0.7+    140617 H21  0.3+  0.8-
    
    Ephemeris:
    2014 LA27                a,e,i = 1.95, 0.46, 41                  q = 1.0500
    Date    TT    R. A. (2000) Decl.     Delta      r     Elong.  Phase     V
    2014 05 18    10 32 37.0 +53 13 07   0.9875  1.3160    82.3    49.6    20.6
    ...
    2014 06 02    10 50 21.1 +40 48 32   0.9414  1.2302    77.9    53.7    20.5
    ...
    2014 06 10    11 00 58.5 +33 24 23   0.9226  1.1886    75.5    55.8    20.4
    ...
    2014 06 16    11 09 11.4 +27 33 13   0.9122  1.1599    73.8    57.2    20.4
    2014 06 17    11 10 34.3 +26 33 23   0.9108  1.1554    73.5    57.4    20.4
    2014 06 18    11 11 57.5 +25 33 14   0.9095  1.1509    73.2    57.7    20.4
    ...
    2014 06 24    11 20 19.9 +19 26 14   0.9040  1.1257    71.5    58.9    20.4
    ...
    2014 07 02    11 31 38.2 +11 05 53   0.9031  1.0969    69.4    60.2    20.3
    ...
    2014 07 17    11 53 14.5 -04 33 40   0.9201  1.0605    66.2    61.3    20.3
    
    A. U. Tomatic                (C) Copyright 2014 MPC           M.P.E.C. 2014-M07
    

    Read MPEC 2014-M06 Read MPEC 2014-M08


    MPEC number:

    Enter an MPEC number in one of the following forms:

    • 1997-B01 (the full form)
    • J97B01 (the packed version of the full form)
    • B01 (the abbreviated form)